Location: Cheching
(60.0667°N, 164.2167°W)
Time: 21:43:39
(UTC+00:00)

NOAA 15 - Pass Details

Date: 27 January 2021
Orbit: 798 x 812 km, 98.7° (Epoch: 07 March)

Event Time Altitude Azimuth Distance (km) Brightness Sun altitude
Rises 16:54:58 0° 24° (NNE) 3,347 8.0 -17.6°
Reaches altitude 10° 16:58:40 10° 50° (NE) 2,411 7.7 -17.1°
Maximum altitude 17:01:15 14° 80° (E) 2,167 7.9 -16.8°
Drops below altitude 10° 17:03:50 10° 109° (ESE) 2,405 8.4 -16.5°
Sets 17:07:30 0° 135° (SE) 3,331 8.7 -16.0°
